Beaver, WV

10:40 PM EDT on September 30, 2016 (GMT -0400)
Raleigh County Memorial

Weather History for KBKW - June, 2013

Change the Weather History Date:

Sunday, June 16, 2013

  Actual Average Record
Temperature  
Mean Temperature 69 °F 68 °F  
Max Temperature 79 °F 77 °F 93 °F (1952)
Min Temperature 59 °F 58 °F 36 °F (1917)
Degree Days  
Heating Degree Days 0 1  
Month to date heating degree days 6 31  
Since 1 June heating degree days 6 31  
Since 1 July heating degree days 5274 5332  
Cooling Degree Days 4 4  
Month to date cooling degree days 45 45  
Year to date cooling degree days 112 86  
Since 1 June cooling degree days 45 45  
Growing Degree Days 19 (Base 50)    
Moisture  
Dew Point 62 °F    
Average Humidity 78    
Maximum Humidity 100    
Minimum Humidity 56    
Precipitation  
Precipitation 0.51 in 0.13 in 3.21 in (1954)
Month to date precipitation 2.66 2.12  
Year to date precipitation 18.04 19.28  
Snow  
Snow 0.00 in - - ()
Month to date snowfall 0.0  
Since 1 September snowfall 72.0  
Snow Depth 0.00 in    
Sea Level Pressure  
Sea Level Pressure 30.05 in    
Wind  
Wind Speed 8 mph (SW)    
Max Wind Speed 17 mph    
Max Gust Speed 28 mph    
Visibility 8 miles    
Events Rain    
T = Trace of Precipitation, MM = Missing Value Source: NWS Daily Summary

Daily Weather History Graph

Daily Weather History Graph

Search for Another Location

Airport or City:

Trip Planner

Search our weather history database for the weather conditions in past years. The results will help you decide how hot, cold, wet, or windy it might be!

Date:

Astronomy

Jun. 16, 2013 Rise Set
Actual Time 6:02 AM EDT 8:48 PM EDT
Civil Twilight 5:30 AM EDT 9:19 PM EDT
Nautical Twilight 4:51 AM EDT 9:59 PM EDT
Astronomical Twilight 4:07 AM EDT 10:43 PM EDT
Moon 1:29 PM EDT (6/16) 12:59 AM EDT (6/16)
Length of Visible Light 15h 49m
Length of Day
14h 46m
Waxing Crescent, 49% of the Moon is Illuminated
Jun 16
Waxing Crescent
Jun 16
First Quarter
Jun 23
Full
Jun 30
Last Quarter
Jul 8
New

Hourly Weather History & Observations

Time (EDT) Temp. Dew Point Humidity Pressure Visibility Wind Dir Wind Speed Gust Speed Precip Events Conditions
12:51 AM 61.0 °F 55.0 °F 81% 30.06 in 10.0 mi Calm Calm - N/A   Clear
1:51 AM 59.0 °F 55.0 °F 87% 30.04 in 10.0 mi Calm Calm - N/A   Clear
2:51 AM 63.0 °F 55.9 °F 78% 30.04 in 10.0 mi South 4.6 mph - N/A   Mostly Cloudy
3:51 AM 63.0 °F 57.9 °F 84% 30.03 in 10.0 mi SSW 4.6 mph - N/A   Mostly Cloudy
4:51 AM 63.0 °F 57.9 °F 84% 30.03 in 10.0 mi SW 4.6 mph - N/A   Scattered Clouds
5:51 AM 63.0 °F 59.0 °F 87% 30.04 in 10.0 mi SW 6.9 mph - N/A   Mostly Cloudy
6:51 AM 64.0 °F 59.0 °F 84% 30.06 in 10.0 mi SW 8.1 mph - N/A   Scattered Clouds
7:51 AM 64.9 °F 60.1 °F 84% 30.07 in 10.0 mi SSW 4.6 mph - N/A   Partly Cloudy
8:51 AM 68.0 °F 61.0 °F 78% 30.07 in 10.0 mi SW 6.9 mph - N/A   Clear
9:51 AM 71.1 °F 62.1 °F 73% 30.06 in 10.0 mi WSW 12.7 mph - N/A   Clear
10:51 AM 73.9 °F 64.0 °F 71% 30.06 in 10.0 mi WSW 10.4 mph - N/A   Partly Cloudy
11:51 AM 73.9 °F 63.0 °F 68% 30.06 in 10.0 mi WSW 11.5 mph - N/A   Scattered Clouds
12:14 PM 73.4 °F 62.6 °F 69% 30.13 in 10.0 mi WSW 11.5 mph 20.7 mph N/A   Mostly Cloudy
12:51 PM 72.0 °F 63.0 °F 73% 30.05 in 10.0 mi West 10.4 mph 17.3 mph 0.00 in Rain Light Rain
1:51 PM 77.0 °F 62.1 °F 60% 30.03 in 10.0 mi WSW 12.7 mph 24.2 mph 0.00 in   Partly Cloudy
2:51 PM 77.0 °F 60.1 °F 56% 30.01 in 10.0 mi West 15.0 mph - N/A   Scattered Clouds
3:51 PM 77.0 °F 60.1 °F 56% 30.01 in 10.0 mi West 12.7 mph 25.3 mph N/A   Mostly Cloudy
4:51 PM 78.1 °F 62.1 °F 58% 29.99 in 10.0 mi WSW 10.4 mph - N/A   Scattered Clouds
5:51 PM 73.0 °F 64.9 °F 76% 30.01 in 10.0 mi North 11.5 mph - N/A   Overcast
6:22 PM 69.8 °F 68.0 °F 94% 30.10 in 1.5 mi NW 5.8 mph - 0.01 in Rain Heavy Rain
6:37 PM 68.0 °F 66.2 °F 94% 30.09 in 3.0 mi Calm Calm - 0.17 in Rain Light Rain
6:51 PM 68.0 °F 66.9 °F 96% 30.02 in 8.0 mi Calm Calm - 0.17 in   Mostly Cloudy
7:51 PM 66.9 °F 66.0 °F 97% 30.04 in 5.0 mi SSW 3.5 mph - 0.04 in Rain Light Rain
8:03 PM 66.2 °F 64.4 °F 94% 30.11 in 2.0 mi SW 4.6 mph - 0.03 in Rain Rain
8:12 PM 66.2 °F 64.4 °F 94% 30.12 in 4.0 mi SW 3.5 mph - 0.05 in Rain Rain
8:51 PM 66.0 °F 64.9 °F 96% 30.05 in 6.0 mi SSW 9.2 mph - 0.11 in Rain Light Rain
9:51 PM 64.0 °F 64.0 °F 100% 30.04 in 7.0 mi SSW 4.6 mph - 0.01 in Rain Light Rain
10:51 PM 64.0 °F 64.0 °F 100% 30.02 in 6.0 mi SSW 6.9 mph - 0.16 in Rain Light Rain
11:51 PM 64.0 °F 64.0 °F 100% 30.02 in 8.0 mi Calm Calm - 0.02 in   Overcast